SCP
0 0 1 1 1 1 1 1 1 1 1 0 0 0 0 0 0 0 0 0 0 0 0 0 0 0 0 0 0 0 0 0 0 0 0 0 0 0 0 0 0 0 0
0 0 1 1 1 1 1 1 1 1 1 0 0 0 0 0 0 0 0 0 0 0 0 0 0 0 0 0 0 0 0 0 0 0 0 0 0 0 0 0 0 0 0
0 0 1 1 1 1 1 1 1 1 1 1 0 0 0 0 0 0 0 0 0 0 0 0 0 0 0 0 0 0 0 0 0 0 0 0 0 0 0 0 0 0 0
0 0 0 1 1 1 1 1 1 1 1 1 1 0 0 0 0 0 0 0 0 0 0 0 0 0 0 0 0 0 0 0 0 0 0 0 0 0 0 0 0 0 0
0 0 0 1 1 1 1 1 1 1 1 1 1 0 0 0 0 0 0 0 0 0 0 0 0 0 0 0 0 0 0 0 0 0 0 0 0 0 0 0 0 0 0
0 0 0 1 1 1 1 1 1 1 1 1 0 0 0 0 0 0 0 0 0 0 0 0 0 0 0 0 0 0 0 0 0 0 0 0 0 0 0 0 0 0 0
0 0 0 1 1 1 1 1 1 1 0 0 0 0 0 0 0 0 0 0 0 0 0 0 0 0 0 0 0 0 0 0 0 0 0 0 0 0 0 0 0 0 0
0 0 1 1 1 1 1 1 1 1 1 0 0 0 0 0 0 0 0 0 0 0 0 0 0 0 0 0 0 0 0 0 0 0 0 0 0 0 0 0 0 0 0
0 1 1 1 1 1 1 1 1 1 1 0 0 0 0 0 0 0 0 0 0 0 0 0 0 0 0 0 0 0 0 0 0 0 0 0 0 0 0 0 0 0 0
0 1 1 1 1 1 1 1 1 1 1 0 0 0 0 0 0 0 0 0 0 0 0 0 0 0 0 0 0 0 0 0 0 0 0 0 0 0 0 0 0 0 0
1 0 0 0 0 0 0 1 1 0 0 0 0 0 0 0 0 0 0 0 0 0 0 0 0 0 0 0 0 0 0 0 0 0 0 0 0 0 0 0 0 0 0
1 0 0 0 0 0 0 0 0 0 0 0 0 0 0 0 0 0 0 0 0 0 0 0 0 0 0 0 0 0 0 0 0 0 0 0 0 0 0 0 0 0 0
0 0 0 0 0 0 0 0 0 0 0 0 0 0 0 0 0 0 0 0 0 0 0 0 0 0 0 0 0 0 0 0 0 0 0 0 0 0 0 0 0 0 0
0 0 0 0 0 0 0 0 0 0 0 0 0 0 0 0 0 0 0 0 0 0 0 0 0 0 0 0 0 0 0 0 0 0 0 0 0 0 0 0 0 0 0
0 0 0 0 0 0 0 0 0 0 0 0 0 0 0 0 0 0 0 0 0 0 0 0 0 0 0 0 0 0 0 0 0 0 0 0 0 0 0 0 0 0 0
1 0 0 0 1 1 1 1 0 0 0 0 0 0 0 0 0 0 0 0 0 0 0 0 0 0 0 0 0 0 0 0 0 0 0 0 0 0 0 0 0 0 0
1 1 1 1 1 1 1 1 1 0 0 0 0 0 0 0 0 0 0 0 0 0 0 0 0 0 0 0 0 0 0 0 0 0 0 0 0 0 0 0 0 0 0
1 1 1 1 1 1 1 1 1 0 0 0 0 0 0 0 0 0 0 0 0 0 0 0 0 0 0 0 0 0 0 0 0 0 0 0 0 0 0 0 0 0 0
1 1 1 1 1 1 1 1 1 0 0 0 0 0 0 0 0 0 0 0 0 0 0 0 0 0 0 0 0 0 0 0 0 0 0 0 0 0 0 0 0 0 0
0 1 1 1 1 1 1 1 1 0 0 0 0 0 0 0 0 0 0 0 0 0 0 0 0 0 0 0 0 0 0 0 0 0 0 0 0 0 0 0 0 0 0
0 1 1 1 1 1 1 1 1 0 0 0 0 0 0 0 0 0 0 0 0 0 0 0 0 0 0 0 0 0 0 0 0 0 0 0 0 0 0 0 0 0 0
1 1 1 1 1 1 1 1 1 0 0 0 0 0 0 0 0 0 0 0 0 0 0 0 0 0 0 0 0 0 0 0 0 0 0 0 0 0 0 0 0 0 0
1 1 1 1 1 1 1 1 1 0 0 0 0 0 0 0 0 0 0 0 0 0 0 0 0 0 0 0 0 0 0 0 0 0 0 0 0 0 0 0 0 0 0
0 0 0 0 0 1 1 1 1 0 0 0 0 0 0 0 0 0 0 0 0 0 0 0 0 0 0 0 0 0 0 0 0 0 0 0 0 0 0 0 0 0 0
0 0 0 0 0 0 1 1 1 0 0 0 0 0 0 0 0 0 0 0 0 0 0 0 0 0 0 0 0 0 0 0 0 0 0 0 0 0 0 0 0 0 0
0 0 0 0 0 0 1 1 0 0 0 0 0 0 0 0 0 0 0 0 0 0 0 0 0 0 0 0 0 0 0 0 0 0 0 0 0 0 0 0 0 0 0
Wind_Speed
5 7 12 12 12 12 12 13 13 13 14 14 14 13 13 13 13 13 12 12 12 12 13 13 14 14 14 14 13 12 12 12 11 11 12 13 13 13 12 11 10 8 12
9 9 13 13 13 13 12 13 13 13 13 13 14 13 13 12 12 12 12 12 12 12 13 13 13 13 13 13 12 12 12 12 12 12 12 12 12 12 10 10 9 7 11
11 9 12 14 13 13 13 13 13 13 13 13 13 13 12 12 12 11 12 11 11 11 12 13 13 12 12 12 12 11 11 11 11 12 11 7 8 11 10 9 9 9 11
11 9 10 14 13 13 13 13 13 13 13 12 12 12 12 12 11 11 11 11 11 11 11 12 12 12 12 11 11 11 11 11 11 11 6 5 6 9 9 9 9 9 10
9 7 9 14 13 13 12 12 12 12 12 12 12 12 11 11 11 10 11 11 11 10 10 11 11 11 11 10 10 10 11 11 10 9 5 5 4 8 10 9 9 9 9
8 7 8 14 13 13 12 12 12 12 12 11 11 11 11 10 10 10 10 10 10 10 10 10 10 10 10 9 9 9 10 10 9 6 4 4 3 7 9 9 9 8 8
8 6 7 12 12 13 12 12 12 11 11 11 10 10 10 9 9 9 9 9 9 9 9 9 9 8 9 8 8 8 9 9 6 5 4 3 4 7 7 7 7 7 7
8 6 6 12 12 12 12 11 11 11 10 10 9 9 9 9 9 8 8 8 8 8 8 8 8 8 8 8 7 7 8 8 6 5 4 3 4 6 6 6 6 6 7
7 6 5 6 8 11 11 10 10 10 10 9 9 9 9 8 8 8 7 7 8 8 8 8 8 7 7 8 7 7 7 8 5 3 4 2 4 5 5 6 6 6 6
5 5 4 4 4 4 6 10 10 10 10 9 8 9 9 8 8 8 7 7 7 7 7 7 7 6 6 7 7 7 8 7 4 4 2 2 4 4 4 5 5 6 6
5 4 4 4 4 4 4 6 7 8 8 8 6 8 7 3 3 4 6 7 7 7 7 7 6 6 6 6 7 8 6 3 4 2 1 3 4 4 3 4 5 6 5
7 6 5 5 4 4 4 3 2 3 3 3 2 3 3 2 2 3 5 7 7 7 7 7 6 5 4 3 5 6 2 3 3 2 2 3 4 4 3 3 4 5 5
7 6 6 5 5 5 3 3 2 2 2 2 3 3 3 2 1 1 1 2 2 4 3 4 3 2 3 3 3 3 3 2 1 1 2 3 3 4 3 3 3 3 4
6 6 5 6 5 4 3 3 3 2 2 2 3 3 3 2 2 1 1 1 2 2 3 3 2 3 3 3 3 3 2 2 1 1 1 4 4 3 3 3 2 3 4
6 6 5 5 5 5 4 3 4 3 3 3 3 3 4 3 2 2 1 2 2 2 3 3 3 3 3 3 2 3 3 2 1 1 1 3 3 3 3 2 2 2 3
7 6 5 5 4 4 4 3 3 3 3 3 3 4 4 3 3 3 2 2 2 2 2 3 3 3 2 2 2 2 2 2 1 1 1 1 2 2 3 2 2 2 3
7 5 6 6 5 5 4 4 3 3 3 3 3 4 4 4 4 3 3 2 2 2 3 3 3 3 2 2 2 2 2 1 1 1 1 0 0 1 2 2 2 2 2
5 5 5 5 5 5 4 3 3 3 3 3 3 3 4 4 4 4 3 2 2 3 3 3 3 3 2 2 1 1 1 1 1 1 0 1 1 1 1 2 2 2 2
6 5 5 5 5 5 4 3 3 3 3 3 3 3 3 4 5 4 3 3 3 3 3 3 2 2 2 2 1 1 1 0 0 0 0 0 1 1 1 2 3 2 2
5 5 5 4 4 4 3 2 2 2 1 2 2 3 4 4 5 4 3 3 4 3 3 3 3 3 2 2 1 2 1 1 0 0 0 0 0 1 1 1 1 1 2
4 4 4 4 4 4 3 3 3 3 2 2 2 3 4 4 5 5 4 4 4 3 4 4 3 3 2 1 2 2 2 1 1 1 0 0 1 1 1 1 1 1 1
5 5 4 4 4 4 3 2 2 2 1 1 1 2 3 5 5 5 5 4 4 4 4 4 4 3 2 2 2 2 1 2 2 1 1 1 1 1 1 1 1 1 2
6 6 5 5 4 3 3 3 3 2 2 1 1 1 2 4 5 4 5 5 4 4 4 4 4 4 3 1 1 3 2 1 1 2 1 1 1 1 2 1 2 2 2
6 5 4 5 4 4 4 4 5 4 2 2 2 2 2 3 4 4 5 5 5 4 4 4 3 3 4 3 1 1 1 2 2 1 1 1 1 1 2 2 2 2 2
4 4 4 3 3 3 4 5 5 3 2 1 2 3 2 2 3 4 5 5 4 4 4 4 4 3 3 3 2 2 1 1 1 2 1 2 2 1 2 2 2 2 2
3 3 4 4 4 4 4 5 5 5 4 4 3 3 2 2 2 3 4 4 4 4 4 4 4 4 3 3 2 2 2 2 2 2 2 1 2 2 2 2 2 2 2
Wind_Direction
159 160 155 151 144 135 129 124 120 119 119 119 119 118 117 116 116 116 115 114 112 109 108 109 110 112 113 114 114 112 109 109 110 113 117 119 121 123 123 123 124 122 123
149 154 154 152 146 139 134 128 124 122 121 122 123 123 121 120 119 119 117 115 114 112 112 111 111 111 112 112 110 110 110 108 108 107 111 115 118 120 122 126 127 127 129
142 150 153 152 148 143 138 132 128 126 125 125 127 126 124 124 124 123 121 119 118 117 117 114 114 113 113 112 111 111 112 112 110 109 105 100 110 117 115 120 127 134 134
145 148 153 154 150 146 141 136 134 132 130 128 129 130 129 129 129 128 126 124 122 121 119 117 115 114 114 113 113 115 117 116 114 112 98 99 112 123 122 121 123 133 137
141 146 155 154 152 148 145 142 139 137 135 133 133 134 133 133 132 132 131 130 128 126 121 117 117 115 115 117 119 121 122 122 118 108 101 101 108 128 130 132 131 130 131
140 144 157 156 154 151 150 147 145 143 141 140 138 137 135 134 134 134 134 134 132 128 126 124 122 120 122 126 129 128 128 122 115 109 106 107 112 128 133 136 136 133 132
140 142 157 158 156 154 153 152 149 148 147 145 144 141 138 137 137 136 136 136 134 131 130 128 125 124 128 130 130 128 130 125 113 110 109 113 124 136 140 142 141 136 133
141 143 154 161 159 158 157 155 153 152 151 150 149 147 144 141 140 139 139 138 135 133 132 130 127 125 126 128 126 126 128 125 115 112 106 114 131 141 143 144 144 141 140
136 142 150 159 162 162 160 158 158 157 154 155 156 154 150 149 146 146 145 142 141 137 135 133 131 130 126 125 126 125 124 121 108 111 114 111 129 140 145 140 137 142 147
137 147 153 153 150 155 161 164 163 163 160 161 160 159 158 158 156 153 150 148 146 144 142 139 137 134 127 125 128 129 124 112 104 103 100 120 130 137 140 138 139 140 144
156 160 158 153 148 147 155 169 168 168 167 165 165 165 156 140 141 153 155 154 152 154 151 145 140 131 122 120 124 122 111 100 106 105 111 127 133 135 135 133 126 137 139
177 177 166 163 162 156 166 156 149 157 156 147 139 145 133 124 144 153 161 159 160 159 154 144 133 118 101 93 110 113 99 102 108 116 130 129 136 136 134 126 123 130 138
176 177 177 174 167 165 158 147 144 139 138 139 142 134 128 122 128 123 119 138 141 139 122 117 101 92 98 102 108 112 113 112 109 116 130 134 138 137 134 126 129 136 145
167 180 177 175 173 170 157 156 155 156 159 160 155 146 141 141 141 136 130 122 112 113 114 105 103 100 104 112 116 116 119 127 124 125 149 144 142 139 135 130 139 142 150
173 181 179 173 174 171 162 167 164 173 174 166 165 165 161 160 162 151 146 138 132 125 125 124 122 121 115 113 116 121 119 121 142 148 144 149 150 151 150 156 161 168 164
184 185 180 173 173 164 167 170 171 174 171 167 172 177 175 167 160 155 152 147 150 148 139 135 137 129 115 115 115 121 126 123 133 156 149 155 166 169 166 176 178 187 184
186 177 176 175 173 170 171 175 170 171 165 173 178 179 178 169 162 155 158 160 161 146 134 125 118 109 111 114 118 128 128 130 134 128 150 173 200 192 190 193 194 192 197
170 168 176 178 171 171 174 171 159 161 172 181 178 180 182 171 161 153 156 160 147 134 128 127 122 113 110 109 106 104 102 110 131 150 158 186 211 233 238 220 226 217 209
170 167 170 171 170 171 166 162 151 159 179 178 169 177 184 170 161 152 154 148 134 126 129 139 120 121 117 108 120 97 75 73 223 157 157 227 223 228 253 249 240 228 226
160 162 164 162 163 157 145 132 125 133 165 157 162 169 167 165 159 149 146 145 138 131 128 125 122 105 111 120 97 62 35 8 19 39 294 345 290 250 248 264 267 252 241
145 155 164 159 163 154 152 154 156 169 177 164 171 161 158 158 157 153 152 147 146 147 152 140 126 116 96 98 82 36 6 15 30 355 334 301 293 283 268 250 246 253 266
167 169 169 168 169 167 165 155 140 147 162 169 167 153 159 158 160 165 156 155 155 146 143 141 132 125 116 122 118 99 18 353 351 351 332 272 283 293 283 274 251 247 253
178 182 178 175 168 158 143 124 109 94 86 101 134 160 171 160 160 165 163 157 156 155 161 162 155 147 148 135 119 138 146 213 310 329 323 318 308 297 286 280 263 257 248
188 181 179 171 165 157 148 150 152 153 158 182 175 175 168 162 159 162 160 159 161 162 163 169 157 147 144 153 131 101 139 154 151 320 320 315 305 277 273 274 269 265 254
178 170 169 158 155 157 158 157 151 150 159 155 141 142 146 162 165 163 160 159 162 164 165 161 154 150 147 155 156 147 126 100 125 160 254 306 319 286 269 261 254 257 259
152 154 156 157 166 166 165 164 165 166 163 155 159 162 162 164 167 165 166 163 164 163 166 167 162 162 163 156 157 155 157 157 171 170 204 254 283 293 291 267 251 254 256